BAW2R KSFO-EGKK

Flight info

Callsign BAW2R
Flight time N/A
Altitude 35000
Route SNTNA2 TIPRE DCT MVA DCT KU54Q DCT DBL DCT LNK J146 IOW DCT GIJ DCT CRL DCT BUF DCT KB87A/N0484F370 DCT KB03E DCT HUL DCT 48N060W DCT YQX DCT ELSIR/M085F370 DCT 50N050W 51N040W 52N030W 53N020W DCT MALOT/N0486F370 DCT GISTI/N0484F390 DCT NORLA DCT FONZU DCT ELRIP DCT OTMET
Aircraft A35K/H-SDE2E3GHIJ3J4J5LM1ORWXY/LB1D1

Departure

Time N/A
Airport San Francisco International Airport (KSFO)

Arrival

Time 2026-05-05 09:07
Airport London Gatwick Airport (EGKK)
Time Latitude Longitude Altitude Speed Heading
2026-05-05 08:32 51.30670 -5.65849 39061 ft 490 kts 113°
2026-05-05 08:32 51.29342 -5.60839 39039 ft 490 kts 113°
2026-05-05 08:33 51.26677 -5.50824 39053 ft 490 kts 113°
2026-05-05 08:33 51.24002 -5.40811 39054 ft 490 kts 113°
2026-05-05 08:34 51.21320 -5.30817 39038 ft 490 kts 113°
2026-05-05 08:34 51.18630 -5.20837 39035 ft 490 kts 113°
2026-05-05 08:35 51.15930 -5.10864 39048 ft 490 kts 113°
2026-05-05 08:35 51.13240 -5.00970 39047 ft 490 kts 113°
2026-05-05 08:36 51.10522 -4.91016 39030 ft 490 kts 113°
2026-05-05 08:36 51.07806 -4.81108 39032 ft 490 kts 113°
2026-05-05 08:37 51.05074 -4.71186 39040 ft 490 kts 114°
2026-05-05 08:37 51.02333 -4.61276 39039 ft 490 kts 114°
2026-05-05 08:38 50.99586 -4.51384 39031 ft 490 kts 114°
2026-05-05 08:38 50.96830 -4.41501 39011 ft 490 kts 114°
2026-05-05 08:39 50.94065 -4.31631 39028 ft 490 kts 114°
2026-05-05 08:39 50.91293 -4.21773 39020 ft 490 kts 114°
2026-05-05 08:40 50.88515 -4.11934 39015 ft 489 kts 114°
2026-05-05 08:40 50.85726 -4.02101 39020 ft 489 kts 114°
2026-05-05 08:41 50.82936 -3.92285 39014 ft 489 kts 114°
2026-05-05 08:41 50.80627 -3.82155 39014 ft 489 kts 109°
2026-05-05 08:42 50.78471 -3.71924 38778 ft 492 kts 108°
2026-05-05 08:42 50.77400 -3.66790 38522 ft 492 kts 108°
2026-05-05 08:42 50.76328 -3.61662 38252 ft 491 kts 108°
2026-05-05 08:42 50.75256 -3.56558 37976 ft 490 kts 109°
2026-05-05 08:43 50.74194 -3.51524 37709 ft 489 kts 109°
2026-05-05 08:43 50.73101 -3.46369 37424 ft 489 kts 109°
2026-05-05 08:43 50.72021 -3.41289 36902 ft 487 kts 109°
2026-05-05 08:43 50.70942 -3.36230 36266 ft 486 kts 109°
2026-05-05 08:44 50.69864 -3.31196 35621 ft 484 kts 109°
2026-05-05 08:44 50.68803 -3.26248 34953 ft 482 kts 109°
2026-05-05 08:44 50.67728 -3.21248 34218 ft 481 kts 109°
2026-05-05 08:44 50.66654 -3.16265 33566 ft 479 kts 110°
2026-05-05 08:45 50.65581 -3.11296 33051 ft 480 kts 110°
2026-05-05 08:45 50.64505 -3.06309 32501 ft 482 kts 110°
2026-05-05 08:45 50.63695 -3.01177 32003 ft 486 kts 101°
2026-05-05 08:45 50.63484 -2.95847 31469 ft 491 kts 90°
2026-05-05 08:46 50.63880 -2.90472 30923 ft 496 kts 83°
2026-05-05 08:46 50.64465 -2.85105 30382 ft 499 kts 83°
2026-05-05 08:46 50.65076 -2.79697 29802 ft 502 kts 83°
2026-05-05 08:46 50.65682 -2.74291 29219 ft 505 kts 83°
2026-05-05 08:47 50.66290 -2.68829 28684 ft 505 kts 83°
2026-05-05 08:47 50.66890 -2.63427 28140 ft 496 kts 83°
2026-05-05 08:47 50.67478 -2.58110 27593 ft 489 kts 83°
2026-05-05 08:47 50.68005 -2.52864 27075 ft 480 kts 87°
2026-05-05 08:48 50.68051 -2.47693 26705 ft 465 kts 96°
2026-05-05 08:48 50.67861 -2.42663 26422 ft 455 kts 96°
2026-05-05 08:48 50.67643 -2.37692 26104 ft 454 kts 96°
2026-05-05 08:48 50.67426 -2.32738 25779 ft 453 kts 96°
2026-05-05 08:49 50.67209 -2.27795 25499 ft 452 kts 96°
2026-05-05 08:49 50.66993 -2.22866 25192 ft 450 kts 96°
2026-05-05 08:49 50.66777 -2.17961 24879 ft 447 kts 96°
2026-05-05 08:49 50.66634 -2.14727 24681 ft 446 kts 96°
2026-05-05 08:50 50.66419 -2.09870 24385 ft 443 kts 96°
2026-05-05 08:50 50.66203 -2.05037 24079 ft 441 kts 95°
2026-05-05 08:50 50.66119 -2.00207 23776 ft 440 kts 91°
2026-05-05 08:50 50.66167 -1.95403 23478 ft 437 kts 90°
2026-05-05 08:51 50.66230 -1.90625 23160 ft 435 kts 90°
2026-05-05 08:51 50.66291 -1.85868 22879 ft 433 kts 90°
2026-05-05 08:51 50.66348 -1.81141 22588 ft 430 kts 90°
2026-05-05 08:51 50.66401 -1.76436 22298 ft 428 kts 90°
2026-05-05 08:52 50.66451 -1.71786 22013 ft 426 kts 90°
2026-05-05 08:52 50.66499 -1.67097 21719 ft 425 kts 90°
2026-05-05 08:52 50.66544 -1.62453 21430 ft 423 kts 90°
2026-05-05 08:52 50.66587 -1.57828 21143 ft 421 kts 90°
2026-05-05 08:53 50.66627 -1.53223 20823 ft 420 kts 91°
2026-05-05 08:53 50.66593 -1.48638 20367 ft 417 kts 93°
2026-05-05 08:53 50.66516 -1.44085 19930 ft 414 kts 92°
2026-05-05 08:53 50.66440 -1.39561 19502 ft 412 kts 92°
2026-05-05 08:54 50.66452 -1.35060 19065 ft 409 kts 86°
2026-05-05 08:54 50.67106 -1.30717 18661 ft 409 kts 69°
2026-05-05 08:54 50.68472 -1.26832 18263 ft 403 kts 54°
2026-05-05 08:54 50.70184 -1.23485 17742 ft 382 kts 51°
2026-05-05 08:55 50.71875 -1.20340 17189 ft 372 kts 50°
2026-05-05 08:55 50.73543 -1.17241 16654 ft 369 kts 50°
2026-05-05 08:55 50.75185 -1.14158 16084 ft 365 kts 51°
2026-05-05 08:55 50.76780 -1.11150 15484 ft 348 kts 50°
2026-05-05 08:56 50.78294 -1.08268 14913 ft 333 kts 50°
2026-05-05 08:56 50.79735 -1.05502 14396 ft 319 kts 50°
2026-05-05 08:56 50.81107 -1.02848 13916 ft 307 kts 50°
2026-05-05 08:56 50.82445 -1.00238 13377 ft 303 kts 50°
2026-05-05 08:57 50.83759 -0.97658 12824 ft 300 kts 51°
2026-05-05 08:57 50.85065 -0.95095 12280 ft 298 kts 50°
2026-05-05 08:57 50.86356 -0.92554 11772 ft 295 kts 51°
2026-05-05 08:57 50.87644 -0.90032 11333 ft 294 kts 50°
2026-05-05 08:58 50.88921 -0.87523 10876 ft 293 kts 51°
2026-05-05 08:58 50.90196 -0.85002 10436 ft 293 kts 51°
2026-05-05 08:58 50.91466 -0.82493 9999 ft 292 kts 51°
2026-05-05 08:58 50.92731 -0.79988 9545 ft 290 kts 51°
2026-05-05 08:59 50.93970 -0.77526 9053 ft 278 kts 51°
2026-05-05 08:59 50.95149 -0.75182 8599 ft 266 kts 50°
2026-05-05 08:59 50.96275 -0.72930 8154 ft 255 kts 51°
2026-05-05 08:59 50.97353 -0.70765 7749 ft 245 kts 51°
2026-05-05 09:00 50.98403 -0.68661 7357 ft 242 kts 50°
2026-05-05 09:00 50.99439 -0.66570 6926 ft 240 kts 50°
2026-05-05 09:00 51.00462 -0.64490 6516 ft 238 kts 50°
2026-05-05 09:00 51.01471 -0.62447 6126 ft 230 kts 51°
2026-05-05 09:01 51.02440 -0.60484 5713 ft 222 kts 51°
2026-05-05 09:01 51.03380 -0.58579 5322 ft 215 kts 51°
2026-05-05 09:01 51.04292 -0.56745 4987 ft 209 kts 51°
2026-05-05 09:01 51.05213 -0.54990 4703 ft 205 kts 47°
2026-05-05 09:02 51.06176 -0.53362 4437 ft 196 kts 46°
2026-05-05 09:02 51.07074 -0.51870 4292 ft 181 kts 46°
2026-05-05 09:02 51.07937 -0.50430 4115 ft 179 kts 45°
2026-05-05 09:02 51.08777 -0.49018 3941 ft 178 kts 46°
2026-05-05 09:03 51.09617 -0.47593 3727 ft 176 kts 46°
2026-05-05 09:03 51.10459 -0.46158 3427 ft 174 kts 46°
2026-05-05 09:03 51.11172 -0.44643 3227 ft 175 kts 60°
2026-05-05 09:03 51.11537 -0.42782 3059 ft 176 kts 75°
2026-05-05 09:04 51.11787 -0.40883 2845 ft 175 kts 73°
2026-05-05 09:04 51.12056 -0.38992 2596 ft 175 kts 73°
2026-05-05 09:04 51.12318 -0.37103 2357 ft 174 kts 74°
2026-05-05 09:04 51.12579 -0.35214 2118 ft 173 kts 74°
2026-05-05 09:05 51.12826 -0.33416 1876 ft 160 kts 73°
2026-05-05 09:05 51.13061 -0.31724 1689 ft 153 kts 73°
2026-05-05 09:05 51.13282 -0.30127 1470 ft 142 kts 73°
2026-05-05 09:05 51.13488 -0.28631 1277 ft 135 kts 74°
2026-05-05 09:06 51.13686 -0.27197 1084 ft 133 kts 72°
2026-05-05 09:06 51.13877 -0.25762 851 ft 132 kts 74°
2026-05-05 09:06 51.14086 -0.24341 679 ft 133 kts 71°
2026-05-05 09:06 51.14289 -0.22889 488 ft 136 kts 75°
2026-05-05 09:07 51.14491 -0.21407 335 ft 137 kts 72°
2026-05-05 09:07 51.14691 -0.19931 215 ft 134 kts 73°
2026-05-05 09:07 51.14869 -0.18645 213 ft 105 kts 77°
2026-05-05 09:07 51.14988 -0.17956 219 ft 24 kts 60°
2026-05-05 09:08 51.15053 -0.17804 222 ft 17 kts 47°
2026-05-05 09:08 51.15098 -0.17760 214 ft 3 kts 14°
2026-05-05 09:08 51.15125 -0.17762 215 ft 1 kts 356°
2026-05-05 09:08 51.15132 -0.17763 218 ft 1 kts 355°
2026-05-05 09:09 51.15150 -0.17765 216 ft 4 kts 355°
2026-05-05 09:09 51.15156 -0.17766 217 ft 0 kts 355°
2026-05-05 09:09 51.15163 -0.17767 214 ft 6 kts 353°
2026-05-05 09:10 51.15232 -0.17765 217 ft 11 kts 28°
2026-05-05 09:10 51.15271 -0.17654 214 ft 13 kts 73°
2026-05-05 09:10 51.15292 -0.17502 218 ft 14 kts 78°
2026-05-05 09:10 51.15336 -0.17366 218 ft 16 kts 41°
2026-05-05 09:11 51.15404 -0.17265 220 ft 10 kts 359°
2026-05-05 09:11 51.15484 -0.17290 218 ft 11 kts 349°
2026-05-05 09:11 51.15566 -0.17317 216 ft 13 kts 355°
2026-05-05 09:11 51.15615 -0.17222 210 ft 13 kts 73°
2026-05-05 09:12 51.15642 -0.17073 212 ft 14 kts 59°
2026-05-05 09:12 51.15667 -0.17047 216 ft 7 kts 20°
2026-05-05 09:12 51.15733 -0.16988 217 ft 11 kts 42°
2026-05-05 09:12 51.15760 -0.16941 221 ft 3 kts 48°
2026-05-05 09:13 51.15769 -0.16926 221 ft 2 kts 48°
2026-05-05 09:13 51.15771 -0.16922 221 ft 0 kts 48°